Simultaneous Nadir Overpasses (SNOs) Predictions

Prediction of SNOs between LANDSAT-8 and METOP-B Satellite Orbit:

Table of predicted SNOs for the next 14.0 days since TLE Epoch: 9/5/2014
Index Date (LANDSAT-8) Time (LANDSAT-8) Lat,Lon (LANDSAT-8) SZA (LANDSAT-8 ) Date (METOP-B) Time (METOP-B) Lat,Lon (METOP-B) SZA (METOP-B ) Distance(km) Time Diff (sec)
1 09/07/2014 23:48:00 -81.17, 43.59 102.46 09/07/2014 23:47:22 -81.17, 43.49 102.48 1.77 38
2 09/08/2014 00:37:25 81.19,-148.33 77.63 09/08/2014 00:38:00 81.19,-148.32 77.64 0.18 35
3 09/10/2014 19:22:15 -81.18, 110.32 101.33 09/10/2014 19:21:42 -81.18, 110.26 101.36 1.17 33
4 09/10/2014 20:11:41 81.19, -81.99 78.69 09/10/2014 20:12:21 81.19, -81.92 78.72 1.38 40
5 09/13/2014 14:56:31 -81.17, 176.57 100.27 09/13/2014 14:56:03 -81.18, 176.61 100.27 0.90 28
6 09/13/2014 15:45:56 81.20, -15.39 79.81 09/13/2014 15:46:42 81.19, -15.56 79.81 2.97 46
7 09/16/2014 10:30:45 -81.18,-116.92 99.15 09/16/2014 10:30:23 -81.17,-117.07 99.18 2.64 22
8 09/16/2014 11:20:10 81.20, 51.11 80.92 09/16/2014 11:21:01 81.20, 51.14 80.95 0.59 51
9 09/19/2014 06:05:00 -81.17, -50.52 98.05 09/19/2014 06:04:43 -81.18, -50.43 98.04 1.69 17




NCC Satellite Simultaneous Nadir Overpasses (SNOs) Prediction Service
